Other Surface Observations
Issued by NWS

Home | Current Version | Previous Version | Text Only | Print | Product List | Glossary On
Versions: 1 2 3 4 5 6 7 8 9 10 11 12 13 14 15 16 17 18 19 20 21 22 23 24 25 26 27 28 29 30 31 32 33 34 35 36 37 38 39 40 41 42 43 44 45 46 47 48 49 50
000
SXUS52 KTAE 270615
OSOTAE
OSOTAE
North Florida/South Alabama/Southwest Georgia Weather Roundup
National Weather Service Tallahassee Florida
100 AM EST SUN NOV 27 2022

Note: "fair" indicates few or no clouds below 12,000 feet with no
significant weather and/or obstructions to visibility.

!FLZ017-115-028-034-025-270700
...North Florida...

CITY           SKY/WX    TMP DP  RH WIND       PRES   REMARKS
TALL INTL ARPT CLOUDY    71  67  87 S9        29.94S
FSU LOVE BLDG    N/A     72  66  83 S8          N/A
APALACHICOLA   CLOUDY    71  71 100 S10       29.92F
PERRY          NOT AVBL
CROSS CITY     MOCLDY    68  68  99 SE3       29.98S
JACKSONVILLE   FOG       64  63  96 CALM      29.98S VSB 3/4
$$

!FLZ112-006-005-002-011-270700
...Florida Panhandle...

CITY           SKY/WX    TMP DP  RH WIND       PRES   REMARKS
MARIANNA       CLOUDY    70  68  93 S13G24    29.88F
BONIFAY        NOT AVBL
PANAMA CITY NW LGT RAIN  72  70  93 SE20G29   29.88F FOG
TYNDALL AFB    LGT RAIN  71  68  90 S20       29.89
TYND DRONE APT RAIN      72  72 100 S16       29.87  FOG
DE FUNIAK SPR  RAIN      72  70  94 S15G28    29.85S
EGLIN AFB      CLOUDY    72  70  94 S13G25    29.82
DESTIN         CLOUDY    78  71  79 S13G31    29.83F
HURLBURT       LGT RAIN  72  70  93 S18       29.82
CRESTVIEW      LGT RAIN  74  50  43 S16G33    29.83F
PENSACOLA      CLOUDY    73  71  93 S15G25    29.83S
$$

!ALZ063-066-270700
...South Alabama...

CITY           SKY/WX    TMP DP  RH WIND       PRES   REMARKS
DOTHAN         LGT RAIN  69  69 100 S17G29    29.86F
OZARK CAIRNS   LGT RAIN  68  68 100 SE17G23   29.80
FT RUCKER HELI LGT RAIN  70  68  94 S10G18    29.79
RUCKER HELI 3  LGT RAIN  70  68  94 S18G25    29.78F
RUCKER HELI 2  LGT RAIN  70  68  94 S12G23    29.77
FLORALA APT    LGT RAIN  74  69  85 S22G39    29.82
ANDALUSIA      HVY RAIN  73  69  87 S8        29.79  FOG
TROY           HVY RAIN  68  66  93 E7        29.82  FOG
EUFALA         TSTM      67  66  97 CALM      29.87  FOG
MOBILE         CLOUDY    68  61  78 SW10G20   29.82R
$$

!GAZ120>161-270700
...Southwest and South Central Georgia...

CITY           SKY/WX    TMP DP  RH WIND       PRES   REMARKS
THOMASVILLE    CLOUDY    66  64  94 S7        29.96R
BAINBRIDGE     CLOUDY    69  67  91 S12       29.92S
MOODY AFB      CLOUDY    64  62  94 SE5       29.95F
VALDOSTA       CLOUDY    67  64  90 SE7       29.96F
MOULTRIE       CLOUDY    64  63  94 SE6       29.96R
BLAKELY        LGT RAIN  64  63  94 SE6       29.87F
ALBANY         LGT RAIN  66  62  87 SE10      29.93F
TIFTON         NOT AVBL
FITZGERALD     CLOUDY    65  63  93 SE6       29.94F
CORDELE        CLOUDY    64  61  90 SE6       29.94F
AMERICUS       CLOUDY    62  61  99 VRB5      29.91F
HOMERVILLE     CLOUDY    65  63  93 SE7       29.97F
$$

!GMZ750-755-770-775-270700
...Coastal and Buoy Obs...

STATION/POSITION TIME  TEMP    WIND        PRES    VSBY  WAVE
                       AIR SEA DIR/SP/G                  HT/PER
                 (UTC) (F)     (DEG/KT/KT) (MB)    (MI)  (FT/S)
KEATON BEACH     0600   70     110/  7/  8 1014.6S
CEDAR KEY        0600   67     160/  4/  4 1015.7R
C TOWER          0600   73                 1013.2F
APALACHICOLA BUO 0550   76 75  170/ 14/ 16 1013.0R         3/ 4
PANAMA CITY BUOY 0550   77     170/ 16/ 19 1013.1F         4/ 6
MOBILE BUOY      0600   74     210/ 17/ 23 1011.4
ORANGE BCH AL BU 0550   73 71  210/ 17/ 23 1010.1F         5/ 6
$$



USA.gov is the U.S. government's official web portal to all federal, state and local government web resources and services.